Weather History for Annette Island, AK

Change the Weather History Date:

Sunday, May 12, 2013

  Actual Average Record
Temperature  
Mean Temperature 50 °F 49 °F  
Max Temperature 51 °F 56 °F 70 °F (1997)
Min Temperature 48 °F 43 °F 32 °F (1964)
Degree Days  
Heating Degree Days 15 16  
Month to date heating degree days 172 203  
Since 1 July heating degree days 6160 6148  
Cooling Degree Days 0    
Month to date cooling degree days 0  
Year to date cooling degree days 0  
Moisture  
Dew Point 48 °F    
Average Humidity 0    
Maximum Humidity 0    
Minimum Humidity 0    
Precipitation  
Precipitation 0.40 in 0.19 in 1.63 in (1972)
Month to date precipitation 3.45 2.28  
Year to date precipitation 35.93 35.14  
Snow  
Snow 0.00 in 0.00 in 5.00 in (1964)
Month to date snowfall 0.0 0.1  
Since 1 July snowfall 12.8 34.9  
Snow Depth 0.00 in    
Sea Level Pressure  
Sea Level Pressure 29.67 in    
Wind  
Wind Speed 6 mph (SE)    
Max Wind Speed 16 mph    
Max Gust Speed 24 mph    
Visibility 4 miles    
Events Fog , Rain    
T = Trace of Precipitation, MM = Missing Value Source: NWS Daily Summary

Daily Weather History Graph

Daily Weather History Graph

Search for Another Location

Airport:

Trip Planner

Search our weather history database for the weather conditions in past years. The results will help you decide how hot, cold, wet, or windy it might be!

Date:

Astronomy

May. 12, 2013 Rise Set
Actual Time 4:43 AM AKDT 8:43 PM AKDT
Civil Twilight 3:56 AM AKDT 9:30 PM AKDT
Nautical Twilight 2:48 AM AKDT 10:39 PM AKDT
Astronomical Twilight 1:15 AM AKDT 12:10 AM AKDT
Moon 6:38 AM AKDT (5/12) 11:19 PM AKDT (5/12)
Length of Visible Light 17h 34m
Length of Day
16h 00m
Waxing Crescent, 7% of the Moon is Illuminated
May 12
Waxing Crescent
May 17
First Quarter
May 24
Full
May 31
Last Quarter
Jun 8
New

Hourly Weather History & Observations

Time (AKDT) Temp. Dew Point Humidity Pressure Visibility Wind Dir Wind Speed Gust Speed Precip Events Conditions
12:04 AM 51.8 °F 48.2 °F 88% 29.67 in 10.0 mi Calm Calm - 0.00 in Rain Light Rain
12:36 AM 51.8 °F 48.2 °F 88% 29.67 in 7.0 mi Calm Calm - 0.01 in Rain Light Rain
12:48 AM 51.8 °F 50.0 °F 94% 29.66 in 4.0 mi Calm Calm - 0.02 in Rain Light Rain
12:53 AM 51.1 °F 50.0 °F 96% 29.66 in 4.0 mi Calm Calm - 0.03 in Rain Light Rain
1:53 AM 50.0 °F 48.9 °F 96% 29.63 in 10.0 mi NNE 4.6 mph - 0.04 in Rain Light Rain
2:53 AM 50.0 °F 48.9 °F 96% 29.62 in 5.0 mi Calm Calm - 0.09 in Rain Rain
3:17 AM 50.0 °F 48.2 °F 94% 29.61 in 6.0 mi Calm Calm - 0.01 in Rain Light Rain
3:40 AM 50.0 °F 48.2 °F 94% 29.61 in 4.0 mi Calm Calm - 0.02 in Rain Light Rain
3:53 AM 50.0 °F 48.9 °F 96% 29.62 in 5.0 mi Calm Calm - 0.03 in Rain Light Rain
4:01 AM 50.0 °F 48.2 °F 94% 29.61 in 8.0 mi Calm Calm - 0.00 in Rain Light Rain
4:20 AM 50.0 °F 48.2 °F 94% 29.62 in 3.0 mi South 4.6 mph - 0.01 in Rain Light Rain
4:42 AM 48.2 °F 48.2 °F 100% 29.62 in 2.5 mi SSE 3.5 mph - 0.04 in Rain Rain
4:53 AM 48.9 °F 48.0 °F 97% 29.62 in 4.0 mi South 4.6 mph - 0.06 in Rain Rain
5:15 AM 48.2 °F 48.2 °F 100% 29.62 in 10.0 mi SE 5.8 mph - 0.03 in Rain Light Rain
5:53 AM 48.0 °F 48.0 °F 100% 29.64 in 3.0 mi SE 8.1 mph - 0.04 in   Overcast
5:56 AM 48.2 °F 48.2 °F 100% 29.63 in 1.8 mi SE 6.9 mph - N/A   Overcast
6:53 AM 48.0 °F 48.0 °F 100% 29.65 in 1.0 mi SE 6.9 mph - 0.01 in   Mist
7:12 AM 48.2 °F 48.2 °F 100% 29.65 in 0.8 mi SE 6.9 mph - N/A   Mist
7:53 AM 48.0 °F 48.0 °F 100% 29.67 in 0.5 mi SSE 6.9 mph - N/A Fog Fog
8:37 AM 48.2 °F 48.2 °F 100% 29.67 in 0.2 mi SE 11.5 mph - N/A Fog Fog
8:53 AM 48.9 °F 48.0 °F 97% 29.68 in 0.2 mi SE 10.4 mph - N/A Fog Fog
9:26 AM 48.2 °F 48.2 °F 100% 29.68 in 0.5 mi SE 10.4 mph - N/A Fog Fog
9:39 AM 48.2 °F 48.2 °F 100% 29.69 in 1.2 mi SE 9.2 mph - N/A   Overcast
9:53 AM 48.9 °F 48.0 °F 97% 29.70 in 1.8 mi SE 10.4 mph - 0.00 in Rain Light Rain
10:04 AM 48.2 °F 48.2 °F 100% 29.70 in 0.5 mi SE 8.1 mph - 0.00 in Fog , Rain Light Rain
10:13 AM 48.2 °F 48.2 °F 100% 29.70 in 0.2 mi SE 8.1 mph - 0.00 in Fog , Rain Light Rain
10:35 AM 48.2 °F 48.2 °F 100% 29.70 in 0.5 mi SE 8.1 mph - 0.00 in Fog Fog
10:53 AM 48.9 °F 48.9 °F 100% 29.70 in 0.5 mi SSE 9.2 mph - 0.00 in Fog Fog
11:08 AM 50.0 °F 48.2 °F 94% 29.70 in 1.8 mi SSE 11.5 mph - 0.00 in Rain Light Rain
11:11 AM 50.0 °F 48.2 °F 94% 29.70 in 3.0 mi SSE 9.2 mph - 0.00 in Rain Light Rain
11:53 AM 48.9 °F 48.0 °F 97% 29.71 in 10.0 mi SSE 9.2 mph 17.3 mph 0.00 in   Overcast
12:15 PM 48.2 °F 48.2 °F 100% 29.71 in 1.8 mi SSE 11.5 mph 18.4 mph 0.00 in Rain Light Rain
12:30 PM 48.2 °F 48.2 °F 100% 29.71 in 3.0 mi SSE 10.4 mph 17.3 mph 0.00 in   Overcast
12:53 PM 50.0 °F 48.9 °F 96% 29.71 in 7.0 mi SSE 9.2 mph 19.6 mph 0.00 in   Overcast
1:53 PM 48.9 °F 48.0 °F 97% 29.72 in 9.0 mi SSE 11.5 mph 20.7 mph 0.00 in Rain Light Rain
2:53 PM 50.0 °F 48.9 °F 96% 29.71 in 6.0 mi SE 11.5 mph 19.6 mph 0.08 in Rain Rain
3:37 PM 50.0 °F 48.2 °F 94% 29.70 in 10.0 mi SE 12.7 mph 18.4 mph 0.05 in Rain Light Rain
3:53 PM 50.0 °F 48.9 °F 96% 29.70 in 10.0 mi SSE 13.8 mph 23.0 mph 0.05 in Rain Light Rain
4:19 PM 48.2 °F 48.2 °F 100% 29.70 in 9.0 mi SSE 10.4 mph 19.6 mph 0.00 in Rain Light Rain
4:53 PM 48.9 °F 48.0 °F 97% 29.69 in 10.0 mi SSE 9.2 mph 19.6 mph 0.00 in   Overcast
5:53 PM 48.9 °F 48.0 °F 97% 29.68 in 6.0 mi SSE 10.4 mph 17.3 mph 0.04 in Rain Light Rain
6:53 PM 48.9 °F 48.0 °F 97% 29.67 in 3.0 mi SSE 10.4 mph 17.3 mph 0.09 in Rain Rain
7:00 PM 48.2 °F 48.2 °F 100% 29.67 in 2.5 mi SSE 10.4 mph - 0.02 in Rain Light Rain
7:19 PM 48.2 °F 48.2 °F 100% 29.66 in 1.5 mi SSE 12.7 mph 20.7 mph 0.04 in Rain Light Rain
7:35 PM 48.2 °F 48.2 °F 100% 29.66 in 3.0 mi SSE 13.8 mph 21.9 mph 0.04 in Rain Light Rain
7:53 PM 48.9 °F 48.0 °F 97% 29.66 in 3.0 mi SSE 15.0 mph 23.0 mph 0.06 in Rain Light Rain
8:53 PM 48.9 °F 48.0 °F 97% 29.67 in 4.0 mi SSE 16.1 mph 24.2 mph 0.03 in Rain Light Rain
9:53 PM 48.9 °F 48.0 °F 97% 29.68 in 5.0 mi SSE 12.7 mph 21.9 mph 0.05 in Rain Light Rain
10:53 PM 48.9 °F 48.0 °F 97% 29.68 in 6.0 mi SSE 13.8 mph 28.8 mph 0.02 in   Overcast
11:33 PM 48.2 °F 48.2 °F 100% 29.68 in 2.5 mi SSE 18.4 mph 28.8 mph 0.01 in Rain Rain
11:51 PM 48.2 °F 46.4 °F 93% 29.68 in 3.0 mi SSE 16.1 mph 27.6 mph 0.04 in   Overcast
11:53 PM 48.0 °F 46.9 °F 96% 29.68 in 3.0 mi SSE 17.3 mph 28.8 mph 0.04 in   Overcast